,,,PA_Meas_PMT16A,,PR_Meas_QMR101_102,,RH_Meas_QMH101,,SR_Meas_QMS101,,TA_Meas_QMH101,,GenWind,,GenWind,
date,time,status,PA,status,PR,status,RH,status,SR,status,TA,status,DirAvg,status,SpdAvg,
2011-04-21, 00:00:04,VALID,1010.08,VALID,0,VALID,103.87,VALID,0,VALID,24.725,VALID,134,VALID,0.826953,
2011-04-21, 00:01:04,VALID,1010.07,VALID,0,VALID,103.863,VALID,0,VALID,24.725,VALID,136,VALID,0.869531,
2011-04-21, 00:02:04,VALID,1010.08,VALID,0,VALID,103.855,VALID,0,VALID,24.7055,VALID,127,VALID,0.623047,
2011-04-21, 00:03:04,VALID,1010.07,VALID,0,VALID,103.863,VALID,0,VALID,24.7055,VALID,127,VALID,0.703906,
2011-04-21, 00:04:04,VALID,1010.08,VALID,0,VALID,103.924,VALID,0,VALID,24.7055,VALID,127,VALID,0.880469,
2011-04-21, 00:05:04,VALID,1010.04,VALID,0,VALID,103.985,VALID,0,VALID,24.725,VALID,132,VALID,0.832422,
2011-04-21, 00:06:04,VALID,1010,VALID,0,VALID,104,VALID,0,VALID,24.7445,VALID,109,VALID,0.828516,
2011-04-21, 00:07:04,VALID,1009.98,VALID,0,VALID,104,VALID,0,VALID,24.7659,VALID,100,VALID,1.31602,
2011-04-21, 00:08:04,VALID,1009.97,VALID,0,VALID,104,VALID,0,VALID,24.764,VALID,124,VALID,0.83125,
2011-04-21, 00:09:04,VALID,1009.94,VALID,0,VALID,104,VALID,0,VALID,24.764,VALID,115,VALID,0.747656,
2011-04-21, 00:10:04,VALID,1009.9,VALID,0,VALID,104,VALID,0.105969,VALID,24.7854,VALID,99,VALID,0.913281,
2011-04-21, 00:11:04,VALID,1009.87,VALID,0,VALID,104,VALID,0.105969,VALID,24.764,VALID,120,VALID,0.800391,
2011-04-21, 00:12:04,VALID,1009.8,VALID,0,VALID,103.962,VALID,0,VALID,24.764,VALID,144,VALID,1.15313,
2011-04-21, 00:13:04,VALID,1009.78,VALID,0,VALID,103.977,VALID,0.105969,VALID,24.7854,VALID,138,VALID,1.18867,
2011-04-21, 00:14:04,VALID,1009.74,VALID,0,VALID,103.931,VALID,0,VALID,24.7835,VALID,113,VALID,1.03281,
2011-04-21, 00:15:04,VALID,1009.72,VALID,0,VALID,103.931,VALID,0,VALID,24.764,VALID,137,VALID,1.45859,
2011-04-21, 00:16:04,VALID,1009.68,VALID,0,VALID,103.901,VALID,0.105969,VALID,24.764,VALID,137,VALID,0.714063,
2011-04-21, 00:17:04,VALID,1009.65,VALID,0,VALID,103.901,VALID,0,VALID,24.764,VALID,137,VALID,0.294922,
2011-04-21, 00:18:04,VALID,1009.63,VALID,0,VALID,103.87,VALID,0,VALID,24.7445,VALID,137,VALID,0.00234375,
2011-04-21, 00:19:04,VALID,1009.61,VALID,0,VALID,103.878,VALID,0,VALID,24.7445,VALID,137,VALID,0.343359,
2011-04-21, 00:20:04,VALID,1009.58,VALID,0,VALID,103.924,VALID,0,VALID,24.7445,VALID,136,VALID,0.291016,
2011-04-21, 00:21:04,VALID,1009.55,VALID,0,VALID,103.947,VALID,0,VALID,24.7464,VALID,136,VALID,0.647266,
2011-04-21, 00:22:04,VALID,1009.54,VALID,0,VALID,103.977,VALID,0,VALID,24.725,VALID,137,VALID,0.6375,
2011-04-21, 00:23:04,VALID,1009.5,VALID,0,VALID,103.992,VALID,0,VALID,24.7269,VALID,137,VALID,0.622266,
2011-04-21, 00:24:04,VALID,1009.51,VALID,0,VALID,104,VALID,0,VALID,24.7464,VALID,136,VALID,0.485156,
2011-04-21, 00:25:04,VALID,1009.5,VALID,0,VALID,104,VALID,0,VALID,24.7055,VALID,136,VALID,0,
2011-04-21, 00:26:04,VALID,1009.51,VALID,0,VALID,104,VALID,0,VALID,24.7269,VALID,135,VALID,0.198047,
2011-04-21, 00:27:04,VALID,1009.55,VALID,0,VALID,104,VALID,0,VALID,24.686,VALID,124,VALID,0.357812,
2011-04-21, 00:28:04,VALID,1009.55,VALID,0,VALID,104,VALID,0,VALID,24.7074,VALID,102,VALID,0.641406,
2011-04-21, 00:29:04,VALID,1009.53,VALID,0,VALID,104,VALID,0,VALID,24.7074,VALID,102,VALID,0.307422,
2011-04-21, 00:30:04,VALID,1009.58,VALID,0,VALID,104,VALID,0,VALID,24.7055,VALID,102,VALID,0.0640625,
2011-04-21, 00:31:04,VALID,1009.59,VALID,0,VALID,104,VALID,0,VALID,24.7269,VALID,101,VALID,0.0621094,
2011-04-21, 00:32:04,VALID,1009.59,VALID,0,VALID,104,VALID,0,VALID,24.7055,VALID,101,VALID,0.230469,
2011-04-21, 00:33:04,VALID,1009.59,VALID,0,VALID,104,VALID,0,VALID,24.7074,VALID,101,VALID,0,
2011-04-21, 00:34:04,VALID,1009.56,VALID,0,VALID,104,VALID,0,VALID,24.6879,VALID,101,VALID,0,
2011-04-21, 00:35:04,VALID,1009.58,VALID,0,VALID,104,VALID,0,VALID,24.6879,VALID,101,VALID,0,
2011-04-21, 00:36:04,VALID,1009.57,VALID,0,VALID,104,VALID,0,VALID,24.6879,VALID,101,VALID,0.00429688,
2011-04-21, 00:37:04,VALID,1009.54,VALID,0,VALID,104,VALID,0,VALID,24.6666,VALID,101,VALID,0,
2011-04-21, 00:38:04,VALID,1009.54,VALID,0,VALID,104,VALID,0,VALID,24.686,VALID,101,VALID,0.0511719,
2011-04-21, 00:39:04,VALID,1009.52,VALID,0,VALID,104,VALID,0,VALID,24.7055,VALID,101,VALID,0.300781,
2011-04-21, 00:40:04,VALID,1009.52,VALID,0,VALID,104,VALID,0.105969,VALID,24.725,VALID,101,VALID,0.405469,
2011-04-21, 00:41:04,VALID,1009.52,VALID,0,VALID,104,VALID,0,VALID,24.725,VALID,127,VALID,0.697266,
2011-04-21, 00:42:04,VALID,1009.54,VALID,0,VALID,104,VALID,0,VALID,24.7269,VALID,127,VALID,0.652734,
2011-04-21, 00:43:04,VALID,1009.54,VALID,0,VALID,104,VALID,0,VALID,24.7464,VALID,127,VALID,0.487891,
2011-04-21, 00:44:04,VALID,1009.5,VALID,0,VALID,104,VALID,0,VALID,24.7055,VALID,127,VALID,0.152734,
2011-04-21, 00:45:04,VALID,1009.49,VALID,0,VALID,104,VALID,0,VALID,24.7269,VALID,127,VALID,0.00195313,
2011-04-21, 00:46:04,VALID,1009.47,VALID,0,VALID,104,VALID,0,VALID,24.7269,VALID,127,VALID,0.402344,
2011-04-21, 00:47:04,VALID,1009.41,VALID,0,VALID,104,VALID,0,VALID,24.7269,VALID,127,VALID,0.187109,
2011-04-21, 00:48:04,VALID,1009.39,VALID,0,VALID,104,VALID,0,VALID,24.7464,VALID,127,VALID,0,
2011-04-21, 00:49:04,VALID,1009.4,VALID,0,VALID,104,VALID,0,VALID,24.725,VALID,127,VALID,0,
2011-04-21, 00:50:04,VALID,1009.34,VALID,0,VALID,104,VALID,0,VALID,24.7464,VALID,127,VALID,0.0925781,
2011-04-21, 00:51:04,VALID,1009.31,VALID,0,VALID,104,VALID,0,VALID,24.7659,VALID,127,VALID,0.003125,
2011-04-21, 00:52:04,VALID,1009.28,VALID,0,VALID,104,VALID,0,VALID,24.7659,VALID,127,VALID,0,
2011-04-21, 00:53:04,VALID,1009.27,VALID,0,VALID,104,VALID,0,VALID,24.7659,VALID,127,VALID,0,
2011-04-21, 00:54:04,VALID,1009.22,VALID,0,VALID,104,VALID,0,VALID,24.764,VALID,127,VALID,0,
2011-04-21, 00:55:04,VALID,1009.2,VALID,0,VALID,104,VALID,0,VALID,24.7854,VALID,127,VALID,0,
2011-04-21, 00:56:04,VALID,1009.2,VALID,0,VALID,104,VALID,0,VALID,24.7659,VALID,127,VALID,0,
2011-04-21, 00:57:04,VALID,1009.21,VALID,0,VALID,103.977,VALID,0,VALID,24.7659,VALID,127,VALID,0,
2011-04-21, 00:58:04,VALID,1009.19,VALID,0,VALID,103.947,VALID,0,VALID,24.7659,VALID,127,VALID,0,
2011-04-21, 00:59:04,VALID,1009.16,VALID,0,VALID,103.939,VALID,0,VALID,24.7659,VALID,127,VALID,0,
2011-04-21, 01:00:04,VALID,1009.15,VALID,0,VALID,103.962,VALID,0,VALID,24.7659,VALID,127,VALID,0.376953,
2011-04-21, 01:01:04,VALID,1009.2,VALID,0,VALID,103.992,VALID,0,VALID,24.7854,VALID,127,VALID,0.269531,
2011-04-21, 01:02:04,VALID,1009.2,VALID,0,VALID,103.97,VALID,0,VALID,24.8049,VALID,127,VALID,0,
2011-04-21, 01:03:04,VALID,1009.25,VALID,0,VALID,103.947,VALID,0,VALID,24.8049,VALID,127,VALID,0.298828,
2011-04-21, 01:04:04,VALID,1009.26,VALID,0,VALID,103.924,VALID,0,VALID,24.7854,VALID,113,VALID,0.273828,
2011-04-21, 01:05:04,VALID,1009.29,VALID,0,VALID,103.878,VALID,0,VALID,24.8049,VALID,106,VALID,0.142188,
2011-04-21, 01:06:04,VALID,1009.3,VALID,0,VALID,103.855,VALID,0,VALID,24.8244,VALID,106,VALID,0.158203,
2011-04-21, 01:07:04,VALID,1009.29,VALID,0,VALID,103.825,VALID,0,VALID,24.8225,VALID,106,VALID,0,
2011-04-21, 01:08:04,VALID,1009.27,VALID,0,VALID,103.787,VALID,0,VALID,24.8438,VALID,106,VALID,0.285547,
2011-04-21, 01:09:04,VALID,1009.28,VALID,0,VALID,103.733,VALID,0,VALID,24.8438,VALID,109,VALID,0.420703,
2011-04-21, 01:10:04,VALID,1009.28,VALID,0,VALID,103.672,VALID,0,VALID,24.842,VALID,131,VALID,0.469922,
2011-04-21, 01:11:04,VALID,1009.23,VALID,0,VALID,103.603,VALID,0,VALID,24.8438,VALID,131,VALID,0.29375,
2011-04-21, 01:12:04,VALID,1009.22,VALID,0,VALID,103.565,VALID,0,VALID,24.8438,VALID,131,VALID,0.259375,
2011-04-21, 01:13:04,VALID,1009.22,VALID,0,VALID,103.527,VALID,0,VALID,24.8633,VALID,131,VALID,0.185547,
2011-04-21, 01:14:04,VALID,1009.23,VALID,0,VALID,103.474,VALID,0,VALID,24.8244,VALID,131,VALID,0.0292969,
2011-04-21, 01:15:04,VALID,1009.25,VALID,0,VALID,103.481,VALID,0,VALID,24.8244,VALID,131,VALID,0,
2011-04-21, 01:16:04,VALID,1009.22,VALID,0,VALID,103.497,VALID,0,VALID,24.8244,VALID,131,VALID,0,
2011-04-21, 01:17:04,VALID,1009.25,VALID,0,VALID,103.474,VALID,0,VALID,24.8244,VALID,131,VALID,0,
2011-04-21, 01:18:04,VALID,1009.27,VALID,0,VALID,103.497,VALID,0,VALID,24.8244,VALID,131,VALID,0,
2011-04-21, 01:19:04,VALID,1009.28,VALID,0,VALID,103.504,VALID,0,VALID,24.8049,VALID,131,VALID,0,
2011-04-21, 01:20:04,VALID,1009.27,VALID,0,VALID,103.55,VALID,0,VALID,24.8049,VALID,131,VALID,0.175,
2011-04-21, 01:21:04,VALID,1009.25,VALID,0,VALID,103.588,VALID,0,VALID,24.8049,VALID,131,VALID,0.317578,
2011-04-21, 01:22:04,VALID,1009.25,VALID,0,VALID,103.611,VALID,0,VALID,24.8049,VALID,131,VALID,0.418359,
2011-04-21, 01:23:04,VALID,1009.27,VALID,0,VALID,103.634,VALID,0,VALID,24.7854,VALID,131,VALID,0.892969,
2011-04-21, 01:24:04,VALID,1009.29,VALID,0,VALID,103.611,VALID,0,VALID,24.8049,VALID,141,VALID,0.535156,
2011-04-21, 01:25:04,VALID,1009.28,VALID,0,VALID,103.603,VALID,0,VALID,24.7835,VALID,141,VALID,0.421484,
2011-04-21, 01:26:04,VALID,1009.33,VALID,0,VALID,103.558,VALID,0,VALID,24.7854,VALID,142,VALID,0.428516,
2011-04-21, 01:27:04,VALID,1009.34,VALID,0,VALID,103.542,VALID,0,VALID,24.7659,VALID,142,VALID,0.107813,
2011-04-21, 01:28:04,VALID,1009.32,VALID,0,VALID,103.558,VALID,0,VALID,24.7445,VALID,142,VALID,0.292969,
2011-04-21, 01:29:04,VALID,1009.31,VALID,0,VALID,103.573,VALID,0,VALID,24.7464,VALID,142,VALID,0.185547,
2011-04-21, 01:30:04,VALID,1009.29,VALID,0,VALID,103.573,VALID,0,VALID,24.7464,VALID,142,VALID,0,
2011-04-21, 01:31:04,VALID,1009.3,VALID,0,VALID,103.603,VALID,0,VALID,24.7659,VALID,142,VALID,0,
2011-04-21, 01:32:04,VALID,1009.29,VALID,0,VALID,103.596,VALID,0,VALID,24.7464,VALID,142,VALID,0,
2011-04-21, 01:33:04,VALID,1009.31,VALID,0,VALID,103.611,VALID,0,VALID,24.725,VALID,142,VALID,0,
2011-04-21, 01:34:04,VALID,1009.3,VALID,0,VALID,103.619,VALID,0,VALID,24.7464,VALID,142,VALID,0,
2011-04-21, 01:35:04,VALID,1009.3,VALID,0,VALID,103.649,VALID,0,VALID,24.7055,VALID,142,VALID,0,
2011-04-21, 01:36:04,VALID,1009.3,VALID,0,VALID,103.68,VALID,0,VALID,24.7269,VALID,142,VALID,0,
2011-04-21, 01:37:04,VALID,1009.32,VALID,0,VALID,103.718,VALID,0,VALID,24.7464,VALID,142,VALID,0,
2011-04-21, 01:38:04,VALID,1009.34,VALID,0,VALID,103.733,VALID,0,VALID,24.7269,VALID,142,VALID,0,
2011-04-21, 01:39:04,VALID,1009.36,VALID,0,VALID,103.787,VALID,0,VALID,24.7269,VALID,142,VALID,0,
2011-04-21, 01:40:04,VALID,1009.38,VALID,0,VALID,103.809,VALID,0,VALID,24.725,VALID,142,VALID,0,
2011-04-21, 01:41:04,VALID,1009.38,VALID,0,VALID,103.84,VALID,0,VALID,24.7269,VALID,142,VALID,0,
2011-04-21, 01:42:04,VALID,1009.4,VALID,0,VALID,103.84,VALID,0,VALID,24.7269,VALID,142,VALID,0,
2011-04-21, 01:43:04,VALID,1009.44,VALID,0,VALID,103.848,VALID,0,VALID,24.686,VALID,142,VALID,0,
2011-04-21, 01:44:04,VALID,1009.47,VALID,0,VALID,103.84,VALID,0,VALID,24.7074,VALID,142,VALID,0,
2011-04-21, 01:45:04,VALID,1009.48,VALID,0,VALID,103.863,VALID,0,VALID,24.6666,VALID,142,VALID,0.724609,
2011-04-21, 01:46:04,VALID,1009.52,VALID,0,VALID,103.855,VALID,0,VALID,24.6471,VALID,159,VALID,0.930078,
2011-04-21, 01:47:04,VALID,1009.57,VALID,0,VALID,103.931,VALID,0,VALID,24.6276,VALID,184,VALID,0.914453,
2011-04-21, 01:48:04,VALID,1009.6,VALID,0,VALID,103.97,VALID,0,VALID,24.6471,VALID,194,VALID,0.769531,
2011-04-21, 01:49:04,VALID,1009.63,VALID,0,VALID,104,VALID,0,VALID,24.6666,VALID,209,VALID,0.551953,
2011-04-21, 01:50:04,VALID,1009.62,VALID,0,VALID,104,VALID,0,VALID,24.6684,VALID,209,VALID,0.585547,
2011-04-21, 01:51:04,VALID,1009.59,VALID,0,VALID,104,VALID,0,VALID,24.6879,VALID,209,VALID,0.367188,
2011-04-21, 01:52:04,VALID,1009.58,VALID,0,VALID,104,VALID,0,VALID,24.7269,VALID,212,VALID,0.489062,
2011-04-21, 01:53:04,VALID,1009.56,VALID,0,VALID,104,VALID,0,VALID,24.7854,VALID,212,VALID,0.49375,
2011-04-21, 01:54:04,VALID,1009.54,VALID,0,VALID,104,VALID,0,VALID,24.8244,VALID,212,VALID,0.508594,
2011-04-21, 01:55:04,VALID,1009.54,VALID,0,VALID,104,VALID,0,VALID,24.842,VALID,212,VALID,0.617188,
2011-04-21, 01:56:04,VALID,1009.53,VALID,0,VALID,104,VALID,0,VALID,24.8633,VALID,212,VALID,0.507813,
2011-04-21, 01:57:04,VALID,1009.52,VALID,0,VALID,103.954,VALID,0,VALID,24.8828,VALID,192,VALID,0.820703,
2011-04-21, 01:58:04,VALID,1009.54,VALID,0,VALID,103.893,VALID,0,VALID,24.8809,VALID,195,VALID,0.734766,
2011-04-21, 01:59:04,VALID,1009.56,VALID,0,VALID,103.832,VALID,0,VALID,24.9218,VALID,175,VALID,0.710938,
2011-04-21, 02:00:04,VALID,1009.58,VALID,0,VALID,103.779,VALID,0,VALID,24.9413,VALID,172,VALID,1.10117,
2011-04-21, 02:01:04,VALID,1009.59,VALID,0,VALID,103.756,VALID,0,VALID,24.9608,VALID,160,VALID,0.505859,
2011-04-21, 02:02:04,VALID,1009.58,VALID,0,VALID,103.695,VALID,0,VALID,24.9998,VALID,170,VALID,1.02461,
2011-04-21, 02:03:04,VALID,1009.6,VALID,0,VALID,103.703,VALID,0,VALID,25.0778,VALID,185,VALID,1.6832,
2011-04-21, 02:04:04,VALID,1009.6,VALID,0,VALID,103.611,VALID,0,VALID,25.1343,VALID,192,VALID,1.20234,
2011-04-21, 02:05:04,VALID,1009.59,VALID,0,VALID,103.443,VALID,0,VALID,25.1733,VALID,174,VALID,1.52461,
2011-04-21, 02:06:04,VALID,1009.6,VALID,0,VALID,103.298,VALID,0,VALID,25.2532,VALID,190,VALID,1.43828,
2011-04-21, 02:07:04,VALID,1009.62,VALID,0,VALID,103.123,VALID,0,VALID,25.2922,VALID,189,VALID,1.55664,
2011-04-21, 02:08:04,VALID,1009.61,VALID,0,VALID,102.963,VALID,0,VALID,25.3507,VALID,189,VALID,1.07969,
2011-04-21, 02:09:04,VALID,1009.55,VALID,0,VALID,102.803,VALID,0,VALID,25.3507,VALID,182,VALID,2.36445,
2011-04-21, 02:10:04,VALID,1009.57,VALID,0,VALID,102.597,VALID,0,VALID,25.3877,VALID,181,VALID,1.40547,
2011-04-21, 02:11:04,VALID,1009.57,VALID,0,VALID,102.353,VALID,0,VALID,25.4092,VALID,200,VALID,2.61875,
2011-04-21, 02:12:04,VALID,1009.58,VALID,0,VALID,102.055,VALID,0,VALID,25.4267,VALID,191,VALID,1.65195,
2011-04-21, 02:13:04,VALID,1009.52,VALID,0,VALID,101.705,VALID,0,VALID,25.4072,VALID,182,VALID,3.38281,
2011-04-21, 02:14:04,VALID,1009.48,VALID,0,VALID,101.453,VALID,0,VALID,25.4287,VALID,186,VALID,1.89688,
2011-04-21, 02:15:04,VALID,1009.48,VALID,0,VALID,101.453,VALID,0,VALID,25.4092,VALID,181,VALID,1.65156,
2011-04-21, 02:16:04,VALID,1009.44,VALID,0,VALID,101.339,VALID,0,VALID,25.3702,VALID,183,VALID,2.56602,
2011-04-21, 02:17:04,VALID,1009.42,VALID,0,VALID,101.323,VALID,0,VALID,25.3312,VALID,189,VALID,2.03164,
2011-04-21, 02:18:04,VALID,1009.4,VALID,0,VALID,101.293,VALID,0,VALID,25.3117,VALID,162,VALID,1.71445,
2011-04-21, 02:19:04,VALID,1009.41,VALID,0,VALID,101.262,VALID,0,VALID,25.2708,VALID,181,VALID,2.28086,
2011-04-21, 02:20:04,VALID,1009.44,VALID,0,VALID,101.346,VALID,0,VALID,25.2513,VALID,175,VALID,2.08008,
2011-04-21, 02:21:04,VALID,1009.45,VALID,0,VALID,101.476,VALID,0,VALID,25.2337,VALID,187,VALID,1.19531,
2011-04-21, 02:22:04,VALID,1009.47,VALID,0,VALID,101.567,VALID,0,VALID,25.2337,VALID,149,VALID,1.79766,
2011-04-21, 02:23:04,VALID,1009.52,VALID,0,VALID,101.445,VALID,0,VALID,25.1733,VALID,170,VALID,1.58242,
2011-04-21, 02:24:04,VALID,1009.53,VALID,0,VALID,101.217,VALID,0,VALID,25.1947,VALID,185,VALID,2.47266,
2011-04-21, 02:25:04,VALID,1009.52,VALID,0,VALID,100.919,VALID,0,VALID,25.1947,VALID,188,VALID,1.69219,
2011-04-21, 02:26:04,VALID,1009.54,VALID,0,VALID,100.729,VALID,0,VALID,25.1752,VALID,167,VALID,1.78828,
2011-04-21, 02:27:04,VALID,1009.51,VALID,0,VALID,100.721,VALID,0,VALID,25.1557,VALID,179,VALID,1.70273,
2011-04-21, 02:28:04,VALID,1009.49,VALID,0,VALID,100.256,VALID,0,VALID,25.1557,VALID,185,VALID,2.65156,
2011-04-21, 02:29:04,VALID,1009.47,VALID,0,VALID,100.187,VALID,0,VALID,25.1557,VALID,161,VALID,1.4043,
2011-04-21, 02:30:04,VALID,1009.44,VALID,0,VALID,100.195,VALID,0,VALID,25.1148,VALID,182,VALID,1.69922,
2011-04-21, 02:31:04,VALID,1009.42,VALID,0,VALID,100.263,VALID,0,VALID,25.1148,VALID,189,VALID,1.15,
2011-04-21, 02:32:04,VALID,1009.38,VALID,0,VALID,100.431,VALID,0,VALID,25.1362,VALID,139,VALID,0.548437,
2011-04-21, 02:33:04,VALID,1009.36,VALID,0,VALID,100.469,VALID,0,VALID,25.1167,VALID,143,VALID,0.325,
2011-04-21, 02:34:04,VALID,1009.34,VALID,0,VALID,100.477,VALID,0,VALID,25.1167,VALID,200,VALID,0.942187,
2011-04-21, 02:35:05,VALID,1009.33,VALID,0,VALID,100.599,VALID,0,VALID,25.0778,VALID,145,VALID,0.400781,
2011-04-21, 02:36:05,VALID,1009.32,VALID,0,VALID,100.637,VALID,0,VALID,25.0583,VALID,165,VALID,0.738281,
2011-04-21, 02:37:05,VALID,1009.32,VALID,0,VALID,100.66,VALID,0,VALID,25.0564,VALID,175,VALID,0.741016,
2011-04-21, 02:38:05,VALID,1009.28,VALID,0,VALID,100.774,VALID,0,VALID,25.0583,VALID,166,VALID,0.817578,
2011-04-21, 02:39:05,VALID,1009.24,VALID,0,VALID,100.82,VALID,0,VALID,25.0388,VALID,179,VALID,0.408594,
2011-04-21, 02:40:05,VALID,1009.22,VALID,0,VALID,100.782,VALID,0,VALID,25.0388,VALID,177,VALID,0.746875,
2011-04-21, 02:41:05,VALID,1009.2,VALID,0,VALID,100.721,VALID,0,VALID,25.0388,VALID,188,VALID,1.41211,
2011-04-21, 02:42:05,VALID,1009.22,VALID,0,VALID,100.622,VALID,0,VALID,25.0583,VALID,193,VALID,0.883594,
2011-04-21, 02:43:05,VALID,1009.2,VALID,0,VALID,100.706,VALID,0,VALID,25.0388,VALID,202,VALID,0.841016,
2011-04-21, 02:44:05,VALID,1009.21,VALID,0,VALID,100.668,VALID,0,VALID,24.9979,VALID,182,VALID,0.946875,
2011-04-21, 02:45:05,VALID,1009.23,VALID,0,VALID,100.812,VALID,0,VALID,24.9998,VALID,169,VALID,0.598437,
2011-04-21, 02:46:05,VALID,1009.23,VALID,0,VALID,100.896,VALID,0,VALID,24.9608,VALID,196,VALID,0.667969,
2011-04-21, 02:47:05,VALID,1009.24,VALID,0,VALID,100.973,VALID,0,VALID,24.9413,VALID,188,VALID,0.266406,
2011-04-21, 02:48:05,VALID,1009.24,VALID,0,VALID,100.919,VALID,0,VALID,24.9413,VALID,160,VALID,1.14414,
2011-04-21, 02:49:05,VALID,1009.2,VALID,0,VALID,100.873,VALID,0,VALID,24.9023,VALID,152,VALID,0.595703,
2011-04-21, 02:50:05,VALID,1009.23,VALID,0,VALID,100.82,VALID,0,VALID,24.9218,VALID,147,VALID,0.386328,
2011-04-21, 02:51:05,VALID,1009.23,VALID,0,VALID,100.599,VALID,0,VALID,24.9023,VALID,146,VALID,0.722656,
2011-04-21, 02:52:05,VALID,1009.23,VALID,0,VALID,100.363,VALID,0,VALID,24.8828,VALID,123,VALID,1.14766,
2011-04-21, 02:53:05,VALID,1009.2,VALID,0,VALID,100.317,VALID,0,VALID,24.9023,VALID,145,VALID,0.577344,
2011-04-21, 02:54:05,VALID,1009.23,VALID,0,VALID,100.446,VALID,0.105969,VALID,24.8809,VALID,111,VALID,0.926953,
2011-04-21, 02:55:05,VALID,1009.22,VALID,0,VALID,100.416,VALID,0,VALID,24.8809,VALID,107,VALID,0.641406,
2011-04-21, 02:56:05,VALID,1009.18,VALID,0,VALID,100.553,VALID,0,VALID,24.9218,VALID,118,VALID,1.28359,
2011-04-21, 02:57:05,VALID,1009.21,VALID,0,VALID,100.622,VALID,0,VALID,24.9218,VALID,108,VALID,0.791797,
2011-04-21, 02:58:05,VALID,1009.21,VALID,0,VALID,100.698,VALID,0,VALID,24.8809,VALID,97,VALID,1.3207,
2011-04-21, 02:59:05,VALID,1009.21,VALID,0,VALID,100.79,VALID,0,VALID,24.9023,VALID,90,VALID,0.957031,
2011-04-21, 03:00:05,VALID,1009.25,VALID,0,VALID,100.82,VALID,0.105969,VALID,24.8828,VALID,92,VALID,1.23281,
2011-04-21, 03:01:05,VALID,1009.27,VALID,0,VALID,100.973,VALID,0,VALID,24.8633,VALID,86,VALID,0.6625,
2011-04-21, 03:02:05,VALID,1009.28,VALID,0,VALID,100.957,VALID,0,VALID,24.8438,VALID,114,VALID,0.923437,
2011-04-21, 03:03:05,VALID,1009.32,VALID,0,VALID,101.034,VALID,0,VALID,24.8438,VALID,62,VALID,0.662891,
2011-04-21, 03:04:05,VALID,1009.34,VALID,0,VALID,101.156,VALID,0,VALID,24.8244,VALID,38,VALID,0.889063,
2011-04-21, 03:05:05,VALID,1009.34,VALID,0,VALID,101.308,VALID,0,VALID,24.764,VALID,47,VALID,0.0339844,
2011-04-21, 03:06:05,VALID,1009.3,VALID,0,VALID,101.453,VALID,0.105969,VALID,24.764,VALID,32,VALID,0.7125,
2011-04-21, 03:07:05,VALID,1009.28,VALID,0,VALID,101.59,VALID,0,VALID,24.725,VALID,32,VALID,0.118359,
2011-04-21, 03:08:05,VALID,1009.25,VALID,0,VALID,101.644,VALID,0,VALID,24.7269,VALID,32,VALID,0,
2011-04-21, 03:09:05,VALID,1009.25,VALID,0,VALID,101.636,VALID,0,VALID,24.6879,VALID,32,VALID,0,
2011-04-21, 03:10:05,VALID,1009.2,VALID,0,VALID,101.689,VALID,0,VALID,24.6879,VALID,32,VALID,0,
2011-04-21, 03:11:05,VALID,1009.17,VALID,0,VALID,101.514,VALID,0,VALID,24.6684,VALID,32,VALID,0,
2011-04-21, 03:12:05,VALID,1009.15,VALID,0,VALID,101.484,VALID,0,VALID,24.6489,VALID,32,VALID,0,
2011-04-21, 03:13:05,VALID,1009.12,VALID,0,VALID,101.499,VALID,0,VALID,24.6294,VALID,32,VALID,0,
2011-04-21, 03:14:05,VALID,1009.12,VALID,0,VALID,101.583,VALID,0,VALID,24.6294,VALID,32,VALID,0,
2011-04-21, 03:15:05,VALID,1009.08,VALID,0,VALID,101.674,VALID,0,VALID,24.6081,VALID,32,VALID,0,
2011-04-21, 03:16:05,VALID,1009.1,VALID,0,VALID,101.811,VALID,0,VALID,24.5886,VALID,32,VALID,0,
2011-04-21, 03:17:05,VALID,1009.09,VALID,0,VALID,101.972,VALID,0,VALID,24.5905,VALID,32,VALID,0,
2011-04-21, 03:18:05,VALID,1009.09,VALID,0,VALID,102.033,VALID,0,VALID,24.571,VALID,32,VALID,0,
2011-04-21, 03:19:05,VALID,1009.06,VALID,0,VALID,102.116,VALID,0,VALID,24.5905,VALID,32,VALID,0,
2011-04-21, 03:20:05,VALID,1009.04,VALID,0,VALID,102.2,VALID,0,VALID,24.5515,VALID,32,VALID,0.362109,
2011-04-21, 03:21:05,VALID,1009.01,VALID,0,VALID,102.299,VALID,0,VALID,24.5125,VALID,32,VALID,0.266797,
2011-04-21, 03:22:05,VALID,1009,VALID,0,VALID,102.429,VALID,0,VALID,24.4735,VALID,32,VALID,0.229297,
2011-04-21, 03:23:05,VALID,1008.97,VALID,0,VALID,102.612,VALID,0,VALID,24.454,VALID,32,VALID,0.110547,
2011-04-21, 03:24:05,VALID,1008.95,VALID,0,VALID,102.719,VALID,0.105969,VALID,24.3937,VALID,32,VALID,0.0972656,
2011-04-21, 03:25:05,VALID,1008.96,VALID,0,VALID,102.81,VALID,0,VALID,24.3761,VALID,32,VALID,0,
2011-04-21, 03:26:05,VALID,1008.9,VALID,0,VALID,102.932,VALID,0,VALID,24.3566,VALID,32,VALID,0,
2011-04-21, 03:27:05,VALID,1008.91,VALID,0,VALID,103.054,VALID,0,VALID,24.3371,VALID,32,VALID,0,
2011-04-21, 03:28:05,VALID,1008.89,VALID,0,VALID,103.108,VALID,0,VALID,24.3176,VALID,32,VALID,0,
2011-04-21, 03:29:05,VALID,1008.9,VALID,0,VALID,103.176,VALID,0,VALID,24.3176,VALID,32,VALID,0,
2011-04-21, 03:30:05,VALID,1008.92,VALID,0,VALID,103.199,VALID,0,VALID,24.3176,VALID,32,VALID,0,
2011-04-21, 03:31:05,VALID,1008.89,VALID,0,VALID,103.237,VALID,0,VALID,24.2981,VALID,32,VALID,0,
2011-04-21, 03:32:05,VALID,1008.89,VALID,0,VALID,103.306,VALID,0,VALID,24.2573,VALID,32,VALID,0,
2011-04-21, 03:33:05,VALID,1008.91,VALID,0,VALID,103.382,VALID,0,VALID,24.2786,VALID,32,VALID,0.450391,
2011-04-21, 03:34:05,VALID,1008.89,VALID,0,VALID,103.42,VALID,0,VALID,24.2396,VALID,32,VALID,0.214062,
2011-04-21, 03:35:05,VALID,1008.9,VALID,0,VALID,103.52,VALID,0,VALID,24.2396,VALID,32,VALID,0.191797,
2011-04-21, 03:36:05,VALID,1008.89,VALID,0,VALID,103.596,VALID,0,VALID,24.2202,VALID,32,VALID,0.194922,
2011-04-21, 03:37:05,VALID,1008.84,VALID,0,VALID,103.664,VALID,0,VALID,24.1988,VALID,32,VALID,0.310156,
2011-04-21, 03:38:05,VALID,1008.82,VALID,0,VALID,103.764,VALID,0,VALID,24.2007,VALID,32,VALID,0.202344,
2011-04-21, 03:39:05,VALID,1008.8,VALID,0,VALID,103.809,VALID,0,VALID,24.2202,VALID,32,VALID,0,
2011-04-21, 03:40:05,VALID,1008.77,VALID,0,VALID,103.848,VALID,0,VALID,24.2202,VALID,32,VALID,0,
2011-04-21, 03:41:05,VALID,1008.76,VALID,0,VALID,103.886,VALID,0,VALID,24.2007,VALID,32,VALID,0,
2011-04-21, 03:42:05,VALID,1008.76,VALID,0,VALID,103.924,VALID,0,VALID,24.2202,VALID,32,VALID,0,
2011-04-21, 03:43:05,VALID,1008.76,VALID,0,VALID,103.931,VALID,0,VALID,24.1793,VALID,32,VALID,0,
2011-04-21, 03:44:05,VALID,1008.79,VALID,0,VALID,103.939,VALID,0,VALID,24.2007,VALID,32,VALID,0,
2011-04-21, 03:45:05,VALID,1008.84,VALID,0,VALID,103.985,VALID,0.105969,VALID,24.2007,VALID,32,VALID,0,
2011-04-21, 03:46:05,VALID,1008.82,VALID,0,VALID,104,VALID,0,VALID,24.2202,VALID,32,VALID,0,
2011-04-21, 03:47:05,VALID,1008.84,VALID,0,VALID,104,VALID,0,VALID,24.2396,VALID,32,VALID,0,
2011-04-21, 03:48:05,VALID,1008.87,VALID,0,VALID,104,VALID,0,VALID,24.2396,VALID,32,VALID,0,
2011-04-21, 03:49:05,VALID,1008.92,VALID,0,VALID,104,VALID,0,VALID,24.2396,VALID,32,VALID,0.485156,
2011-04-21, 03:50:05,VALID,1008.9,VALID,0,VALID,104,VALID,0,VALID,24.2007,VALID,145,VALID,0.380078,
2011-04-21, 03:51:05,VALID,1008.92,VALID,0,VALID,104,VALID,0,VALID,24.2202,VALID,145,VALID,0.228906,